Home   Weather   Rennes   Past weeks

Flag for France Past Weather in Rennes, Brittany, France — Yesterday and Last 2 Weeks

Now
48 °F

Low clouds.


Feels Like: 46 °F
Forecast: 42 / 53 °F
Wind: 6 mph from Southwest

Location: Rennes Airport

Current Time: Dec 8, 2016 at 7:30:11 pm

Latest Report: Dec 8, 2016 at 6:30 pm


Visibility: 4 mi

Pressure: 30.42 "Hg

Humidity: 94%

Dew Point: 46 °F

Location of RennesLocation

Past Weather in Rennes — Graph

°F

Rennes Temperature Yesterday

Maximum temperature yesterday: 57 °F (at 2:00 pm)
Minimum temperature yesterday: 41 °F (at 12:30 am)
Average temperature yesterday: 47 °F

High & Low Weather Summary for the Past Weeks

 TemperatureHumidityPressure
High57 °F (Dec 6, 2:00 pm)100% (Nov 27, 3:00 am)30.57 "Hg (Nov 27, 3:00 am)
Low27 °F (Nov 29, 6:00 am)37% (Nov 28, 2:30 pm)29.80 "Hg (Nov 23, 6:00 pm)
Average43 °F83%30.19 "Hg
* Reported Nov 23 6:00 pm — Dec 8 6:00 pm, Rennes, Weather by CustomWeather, © 2016

Note: Actual official high and low records may vary slightly from our data, if they occured in-between our weather recording intervals... More about our weather records

Advertising

Rennes Weather History for the Previous 24 Hours

Scroll right to see more
 ConditionsComfort  
Time TempWeatherWind HumidityBarometerVisibility
6:00 pm
Thu, Dec 8
48 °FPartly cloudy.7 mph94%30.42 "Hg4 mi
5:30 pm48 °FPassing clouds.3 mph87%30.39 "Hg6 mi
5:00 pm50 °FSunny.3 mph88%30.39 "Hg10 mi
4:30 pm52 °FSunny.6 mph82%30.39 "Hg10 mi
4:00 pm52 °FSunny.6 mph82%30.39 "Hg10 mi
3:30 pm55 °FSunny.6 mph72%30.36 "Hg10 mi
3:00 pm55 °FSunny.7 mph72%30.36 "Hg10 mi
2:30 pm54 °FSunny.8 mph77%30.36 "Hg10 mi
2:00 pm54 °FSunny.8 mph77%30.39 "Hg10 mi
1:30 pm54 °FSunny.6 mph77%30.39 "Hg10 mi
1:00 pm52 °FPassing clouds.5 mph77%30.39 "HgN/A
12:30 pm52 °FPassing clouds.6 mph77%30.39 "HgN/A
12:00 pm50 °FPassing clouds.6 mph76%30.42 "HgN/A
11:30 am50 °FSunny.3 mph76%30.42 "Hg10 mi
11:00 am46 °FSunny.5 mph87%30.39 "Hg10 mi
10:30 am45 °FSunny.5 mph87%30.39 "Hg10 mi
10:00 am43 °FClear.1 mph93%30.42 "Hg5 mi
9:30 am39 °FFog.3 mph100%30.39 "Hg3 mi
9:00 am41 °FQuite cool.5 mph87%30.39 "HgN/A
8:30 am43 °FQuite cool.10 mph87%30.39 "HgN/A
8:00 am43 °FQuite cool.8 mph93%30.39 "Hg4 mi
7:30 am41 °FQuite cool.3 mph93%30.39 "Hg4 mi
7:00 am41 °FQuite cool.3 mph93%30.39 "Hg4 mi
6:30 am41 °FFog.5 mph93%30.39 "Hg3 mi
6:00 am37 °FFog.1 mph100%30.42 "Hg2 mi
5:30 am39 °FFog.2 mph93%30.42 "Hg2 mi
5:00 am37 °FFog.2 mph93%30.39 "Hg2 mi
4:30 am39 °FFog.5 mph100%30.39 "Hg3 mi
3:30 am41 °FFog.3 mph93%30.39 "Hg3 mi
3:00 am39 °FFog.3 mph100%30.39 "Hg3 mi
2:30 am41 °FFog.5 mph93%30.39 "Hg2 mi
2:00 am41 °FQuite cool.No wind93%30.39 "Hg4 mi
1:30 am45 °FQuite cool.3 mph87%30.39 "Hg4 mi
1:00 am46 °FCool.9 mph87%30.39 "Hg4 mi
12:30 am41 °FQuite cool.5 mph100%30.39 "Hg4 mi
12:00 am41 °FQuite cool.3 mph93%30.42 "Hg4 mi
11:30 pm
Wed, Dec 7
43 °FQuite cool.2 mph93%30.42 "Hg4 mi
11:00 pm45 °FQuite cool.6 mph93%30.39 "Hg4 mi
10:30 pm46 °FCool.8 mph87%30.39 "Hg4 mi
10:00 pm46 °FCool.8 mph87%30.42 "Hg4 mi
9:30 pm46 °FCool.9 mph93%30.42 "Hg4 mi
9:00 pm46 °FCool.3 mph87%30.42 "Hg4 mi
8:30 pm46 °FCool.1 mph87%30.42 "Hg4 mi
8:00 pm46 °FCool.3 mph87%30.42 "Hg4 mi
7:30 pm48 °FCool.8 mph87%30.39 "Hg4 mi
7:00 pm50 °FCool.8 mph82%30.39 "Hg6 mi
Weather by CustomWeather, © 2016

See weather overviewHow to use our weather pages